Terminal Aerodrome Forecast
Issued by NWS Pittsburgh, PA

Current Version | Previous Version | Graphics & Text | Print | Product List | Glossary On
Versions: 1 2 3 4 5 6 7 8 9 10 11 12 13 14 15 16 17 18 19 20 21 22 23 24 25 26 27 28
000
FTUS41 KPBZ 231027 AAC
TAFPIT
TAF AMD
KPIT 231027Z 2310/2412 19006KT 3SM -SHRA OVC008
      TEMPO 2310/2312 2SM -SHRA BKN003
     FM231500 21008KT 5SM -SHRA BR OVC015
     FM231800 23012G20KT 5SM SHRA VCTS OVC020CB
     FM240000 23008KT 3SM SHRA BR OVC008
     FM240400 26004KT P6SM VCSH OVC006=

USA.gov is the U.S. government's official web portal to all federal, state and local government web resources and services.